APRIZESAT 3

Last updated on Fri Dec 29 2023 00:03:02 GMT+0000 (Coordinated Universal Time)

1 35686U 09041F 23362.18986801 .00003468 00000+0 34819-3 0 9997 2 35686 98.1067 106.6972 0069673 156.5985 203.8429 14.90179377781790
UTC large
Height (km)
Speed (km/s)
/
Latitude / Longitude
Inclination (degrees)
Orbital Period (minutes)
Azimuth
Elevation
Range (km)
Doppler Factor

Next 0 passes for location: London (51.5072 / 0.1276)

Sorry there are no passes over London.
APRIZESAT 3